| time (UTC) | temp F | wind direction | speed MPH | gust MPH | rain 1hr in | rain 24hr in | rain mn in | humidity % | barometer mb |
| 20260505183715 | 83 | 225 | 4.0 | 6.0 | 0.00 | 0.00 | 0.00 | 38 | 1009.1 |
| 20260505183212 | 82 | 236 | 3.0 | 5.0 | 0.00 | 0.00 | 0.00 | 37 | 1009.4 |
| 20260505182708 | 82 | 240 | 5.0 | 8.0 | 0.00 | 0.00 | 0.00 | 38 | 1009.5 |
| 20260505182206 | 82 | 229 | 9.0 | 13.0 | 0.00 | 0.00 | 0.00 | 37 | 1009.5 |
| 20260505181702 | 82 | 205 | 5.0 | 8.0 | 0.00 | 0.00 | 0.00 | 38 | 1009.6 |
| 20260505181200 | 83 | 213 | 7.0 | 9.0 | 0.00 | 0.00 | 0.00 | 37 | 1009.4 |
| 20260505180655 | 83 | 222 | 7.0 | 10.0 | 0.00 | 0.00 | 0.00 | 38 | 1009.6 |
| 20260505180153 | 83 | 249 | 5.0 | 7.0 | 0.00 | 0.00 | 0.00 | 38 | 1009.5 |
| 20260505175649 | 83 | 228 | 8.0 | 11.0 | 0.00 | 0.00 | 0.00 | 38 | 1009.7 |
| 20260505175145 | 82 | 211 | 12.0 | 16.0 | 0.00 | 0.00 | 0.00 | 38 | 1009.5 |
| 20260505174642 | 82 | 243 | 5.0 | 6.0 | 0.00 | 0.00 | 0.00 | 39 | 1009.5 |
| 20260505174138 | 82 | 191 | 3.0 | 5.0 | 0.00 | 0.00 | 0.00 | 41 | 1009.5 |
| 20260505173635 | 83 | 199 | 3.0 | 5.0 | 0.00 | 0.00 | 0.00 | 42 | 1009.9 |
| 20260505173132 | 83 | 242 | 2.0 | 5.0 | 0.00 | 0.00 | 0.00 | 42 | 1009.8 |
| 20260505172629 | 83 | 222 | 0.0 | 1.0 | 0.00 | 0.00 | 0.00 | 43 | 1009.7 |
| 20260505172126 | 82 | 238 | 7.0 | 8.0 | 0.00 | 0.00 | 0.00 | 41 | 1009.7 |
| 20260505171621 | 81 | 235 | 4.0 | 7.0 | 0.00 | 0.00 | 0.00 | 40 | 1009.7 |
| 20260505171118 | 82 | 240 | 7.0 | 9.0 | 0.00 | 0.00 | 0.00 | 41 | 1009.8 |
| 20260505170615 | 81 | 212 | 7.0 | 10.0 | 0.00 | 0.00 | 0.00 | 43 | 1010.0 |
| 20260505170111 | 82 | 178 | 4.0 | 7.0 | 0.00 | 0.00 | 0.00 | 41 | 1009.9 |
| 20260505165606 | 80 | 231 | 5.0 | 7.0 | 0.00 | 0.00 | 0.00 | 41 | 1010.1 |
| 20260505165102 | 80 | 244 | 4.0 | 5.0 | 0.00 | 0.00 | 0.00 | 43 | 1010.2 |
| 20260505164558 | 80 | 240 | 9.0 | 11.0 | 0.00 | 0.00 | 0.00 | 43 | 1010.3 |
| 20260505164056 | 80 | 236 | 11.0 | 13.0 | 0.00 | 0.00 | 0.00 | 42 | 1010.3 |
| 20260505163554 | 80 | 258 | 7.0 | 9.0 | 0.00 | 0.00 | 0.00 | 43 | 1010.3 |
| 20260505163051 | 80 | 225 | 10.0 | 14.0 | 0.00 | 0.00 | 0.00 | 42 | 1010.4 |
| 20260505162549 | 79 | 249 | 3.0 | 5.0 | 0.00 | 0.00 | 0.00 | 43 | 1010.4 |
| 20260505162047 | 80 | 230 | 7.0 | 10.0 | 0.00 | 0.00 | 0.00 | 43 | 1010.7 |
| 20260505161543 | 79 | 187 | 1.0 | 2.0 | 0.00 | 0.00 | 0.00 | 46 | 1010.6 |
| 20260505161041 | 79 | 251 | 6.0 | 7.0 | 0.00 | 0.00 | 0.00 | 45 | 1010.6 |
| 20260505160539 | 79 | 153 | 3.0 | 3.0 | 0.00 | 0.00 | 0.00 | 45 | 1010.6 |
| 20260505153015 | 77 | 191 | 1.0 | 2.0 | 0.00 | 0.00 | 0.00 | 48 | 1010.9 |
| 20260505152512 | 77 | 256 | 5.0 | 6.0 | 0.00 | 0.00 | 0.00 | 47 | 1011.0 |
| 20260505152008 | 76 | 185 | 3.0 | 3.0 | 0.00 | 0.00 | 0.00 | 49 | 1011.1 |
| 20260505151503 | 76 | 218 | 0.0 | 1.0 | 0.00 | 0.00 | 0.00 | 52 | 1011.1 |
| 20260505151000 | 76 | 224 | 0.0 | 1.0 | 0.00 | 0.00 | 0.00 | 50 | 1011.0 |
| 20260505150457 | 76 | 207 | 2.0 | 2.0 | 0.00 | 0.00 | 0.00 | 51 | 1011.1 |
| 20260505140427 | 71 | 224 | 4.0 | 6.0 | 0.00 | 0.00 | 0.00 | 58 | 1012.0 |
| 20260505124840 | 66 | 251 | 3.0 | 5.0 | 0.00 | 0.00 | 0.00 | 64 | 1011.8 |
| 20260505124337 | 66 | 198 | 3.0 | 3.0 | 0.00 | 0.00 | 0.00 | 65 | 1012.0 |
| 20260505123833 | 66 | 212 | 1.0 | 1.0 | 0.00 | 0.00 | 0.00 | 66 | 1012.2 |
| 20260505123330 | 65 | 216 | 0.0 | 0.0 | 0.00 | 0.00 | 0.00 | 67 | 1012.0 |
| 20260505122826 | 65 | 226 | 4.0 | 6.0 | 0.00 | 0.00 | 0.00 | 66 | 1012.0 |
| 20260505122324 | 65 | 213 | 1.0 | 2.0 | 0.00 | 0.00 | 0.00 | 67 | 1011.9 |
| 20260505121820 | 65 | 253 | 1.0 | 1.0 | 0.00 | 0.00 | 0.00 | 68 | 1011.9 |
| 20260505121317 | 65 | 224 | 1.0 | 2.0 | 0.00 | 0.00 | 0.00 | 68 | 1011.6 |
| 20260505120813 | 64 | 227 | 0.0 | 0.0 | 0.00 | 0.00 | 0.00 | 70 | 1011.8 |
| 20260505120309 | 63 | 218 | 0.0 | 0.0 | 0.00 | 0.00 | 0.00 | 73 | 1011.8 |
| 20260505115808 | 62 | 219 | 0.0 | 0.0 | 0.00 | 0.00 | 0.00 | 74 | 1011.8 |
| 20260505115306 | 60 | 227 | 0.0 | 0.0 | 0.00 | 0.00 | 0.00 | 78 | 1012.1 |
| 20260505114803 | 59 | 228 | 0.0 | 0.0 | 0.00 | 0.00 | 0.00 | 81 | 1011.8 |
| 20260505114300 | 58 | 226 | 0.0 | 0.0 | 0.00 | 0.00 | 0.00 | 86 | 1012.1 |
| 20260505113756 | 56 | 226 | 0.0 | 0.0 | 0.00 | 0.00 | 0.00 | 90 | 1012.0 |
| 20260505113252 | 55 | 246 | 0.0 | 0.0 | 0.00 | 0.00 | 0.00 | 90 | 1011.9 |
| 20260505112748 | 54 | 228 | 0.0 | 0.0 | 0.00 | 0.00 | 0.00 | 91 | 1011.9 |
| 20260505112246 | 53 | 243 | 0.0 | 0.0 | 0.00 | 0.00 | 0.00 | 91 | 1011.9 |
| 20260505111741 | 53 | 241 | 0.0 | 0.0 | 0.00 | 0.00 | 0.00 | 91 | 1011.9 |
| 20260505111237 | 52 | 229 | 0.0 | 0.0 | 0.00 | 0.00 | 0.00 | 92 | 1012.2 |
| 20260505110733 | 51 | 230 | 0.0 | 0.0 | 0.00 | 0.00 | 0.00 | 92 | 1011.8 |
| 20260505110231 | 51 | 228 | 0.0 | 0.0 | 0.00 | 0.00 | 0.00 | 92 | 1011.9 |
| 20260505102206 | 50 | 231 | 0.0 | 1.0 | 0.00 | 0.00 | 0.00 | 90 | 1011.9 |
| 20260505101705 | 50 | 237 | 0.0 | 0.0 | 0.00 | 0.00 | 0.00 | 90 | 1011.9 |
| 20260505101201 | 50 | 206 | 0.0 | 0.0 | 0.00 | 0.00 | 0.00 | 90 | 1011.8 |
| 20260505100657 | 49 | 227 | 0.0 | 0.0 | 0.00 | 0.00 | 0.00 | 90 | 1011.9 |
| 20260505100154 | 49 | 214 | 0.0 | 0.0 | 0.00 | 0.00 | 0.00 | 90 | 1012.1 |
| 20260505095649 | 48 | 227 | 0.0 | 0.0 | 0.00 | 0.00 | 0.00 | 90 | 1011.9 |
| 20260505095147 | 48 | 230 | 0.0 | 0.0 | 0.00 | 0.00 | 0.00 | 90 | 1011.9 |
| 20260505094643 | 48 | 264 | 1.0 | 1.0 | 0.00 | 0.00 | 0.00 | 90 | 1012.1 |
| 20260505094139 | 48 | 238 | 0.0 | 0.0 | 0.00 | 0.00 | 0.00 | 90 | 1011.7 |
| 20260505093636 | 48 | 234 | 0.0 | 0.0 | 0.00 | 0.00 | 0.00 | 90 | 1011.7 |
| 20260505093133 | 48 | 213 | 0.0 | 0.0 | 0.00 | 0.00 | 0.00 | 90 | 1011.5 |
| 20260505092630 | 48 | 224 | 0.0 | 0.0 | 0.00 | 0.00 | 0.00 | 90 | 1011.4 |
| 20260505092129 | 49 | 269 | 0.0 | 1.0 | 0.00 | 0.00 | 0.00 | 90 | 1011.5 |
| 20260505091625 | 49 | 235 | 0.0 | 0.0 | 0.00 | 0.00 | 0.00 | 90 | 1011.1 |
| 20260505091124 | 49 | 245 | 0.0 | 1.0 | 0.00 | 0.00 | 0.00 | 90 | 1011.1 |
| 20260505090621 | 49 | 208 | 0.0 | 0.0 | 0.00 | 0.00 | 0.00 | 90 | 1011.0 |
| 20260505090119 | 48 | 234 | 0.0 | 0.0 | 0.00 | 0.00 | 0.00 | 90 | 1011.1 |
| 20260505085616 | 48 | 235 | 0.0 | 0.0 | 0.00 | 0.00 | 0.00 | 90 | 1011.2 |
| 20260505085114 | 48 | 230 | 0.0 | 0.0 | 0.00 | 0.00 | 0.00 | 90 | 1011.0 |
| 20260505084612 | 48 | 231 | 0.0 | 0.0 | 0.00 | 0.00 | 0.00 | 90 | 1011.1 |
| 20260505084110 | 48 | 229 | 0.0 | 0.0 | 0.00 | 0.00 | 0.00 | 90 | 1011.0 |
| 20260505083607 | 48 | 232 | 0.0 | 0.0 | 0.00 | 0.00 | 0.00 | 89 | 1011.0 |
| 20260505083103 | 48 | 232 | 0.0 | 0.0 | 0.00 | 0.00 | 0.00 | 89 | 1011.0 |
| 20260505082559 | 48 | 235 | 0.0 | 0.0 | 0.00 | 0.00 | 0.00 | 89 | 1011.1 |
| 20260505082057 | 48 | 238 | 0.0 | 0.0 | 0.00 | 0.00 | 0.00 | 89 | 1011.0 |
| 20260505081553 | 48 | 231 | 0.0 | 0.0 | 0.00 | 0.00 | 0.00 | 90 | 1011.1 |
| 20260505081050 | 48 | 234 | 0.0 | 0.0 | 0.00 | 0.00 | 0.00 | 90 | 1011.1 |
| 20260505080546 | 47 | 238 | 0.0 | 0.0 | 0.00 | 0.00 | 0.00 | 89 | 1011.2 |
| 20260505080043 | 47 | 232 | 0.0 | 0.0 | 0.00 | 0.00 | 0.00 | 89 | 1011.1 |
| 20260505075539 | 47 | 236 | 0.0 | 0.0 | 0.00 | 0.00 | 0.00 | 89 | 1011.1 |
| 20260505075036 | 48 | 237 | 0.0 | 0.0 | 0.00 | 0.00 | 0.00 | 89 | 1011.1 |
| 20260505074533 | 47 | 226 | 0.0 | 0.0 | 0.00 | 0.00 | 0.00 | 89 | 1011.3 |
| 20260505074030 | 47 | 232 | 0.0 | 0.0 | 0.00 | 0.00 | 0.00 | 89 | 1011.2 |
| 20260505073527 | 47 | 242 | 0.0 | 0.0 | 0.00 | 0.00 | 0.00 | 89 | 1011.0 |
| 20260505073026 | 47 | 227 | 0.0 | 0.0 | 0.00 | 0.00 | 0.00 | 89 | 1011.1 |
| 20260505072521 | 47 | 232 | 0.0 | 0.0 | 0.00 | 0.00 | 0.00 | 89 | 1011.1 |
| 20260505072017 | 47 | 233 | 0.0 | 0.0 | 0.00 | 0.00 | 0.00 | 89 | 1011.0 |
| 20260505071513 | 47 | 233 | 0.0 | 0.0 | 0.00 | 0.00 | 0.00 | 89 | 1011.1 |
| 20260505071011 | 47 | 229 | 0.0 | 0.0 | 0.00 | 0.00 | 0.00 | 89 | 1010.7 |
| 20260505070509 | 47 | 231 | 0.0 | 0.0 | 0.00 | 0.00 | 0.00 | 89 | 1010.8 |
| 20260505070004 | 47 | 228 | 0.0 | 0.0 | 0.00 | 0.00 | 0.00 | 88 | 1010.9 |
| 20260505065500 | 47 | 237 | 0.0 | 0.0 | 0.00 | 0.00 | 0.00 | 88 | 1011.0 |
| 20260505064957 | 47 | 235 | 0.0 | 0.0 | 0.00 | 0.00 | 0.00 | 88 | 1011.0 |
| 20260505064454 | 47 | 248 | 0.0 | 0.0 | 0.00 | 0.00 | 0.00 | 88 | 1011.0 |
| 20260505063952 | 47 | 233 | 0.0 | 0.0 | 0.00 | 0.00 | 0.00 | 88 | 1010.9 |
| 20260505063449 | 47 | 232 | 0.0 | 0.0 | 0.00 | 0.00 | 0.00 | 88 | 1011.0 |
| 20260505062945 | 48 | 240 | 0.0 | 0.0 | 0.00 | 0.00 | 0.00 | 87 | 1010.9 |
| 20260505062442 | 48 | 236 | 0.0 | 0.0 | 0.00 | 0.00 | 0.00 | 87 | 1011.2 |
| 20260505061939 | 48 | 249 | 0.0 | 0.0 | 0.00 | 0.00 | 0.00 | 87 | 1010.9 |
| 20260505061437 | 48 | 233 | 0.0 | 0.0 | 0.00 | 0.00 | 0.00 | 87 | 1010.9 |
| 20260505060934 | 48 | 232 | 0.0 | 0.0 | 0.00 | 0.00 | 0.00 | 86 | 1010.8 |
| 20260505060431 | 48 | 233 | 0.0 | 0.0 | 0.00 | 0.00 | 0.00 | 86 | 1011.0 |
| 20260505055927 | 49 | 232 | 0.0 | 0.0 | 0.00 | 0.00 | 0.00 | 85 | 1011.1 |
| 20260505055424 | 49 | 242 | 0.0 | 0.0 | 0.00 | 0.00 | 0.00 | 85 | 1011.0 |
| 20260505054921 | 49 | 233 | 0.0 | 0.0 | 0.00 | 0.00 | 0.00 | 84 | 1011.1 |
| 20260505054418 | 50 | 231 | 0.0 | 0.0 | 0.00 | 0.00 | 0.00 | 84 | 1011.0 |
| 20260505053916 | 50 | 234 | 0.0 | 0.0 | 0.00 | 0.00 | 0.00 | 83 | 1011.0 |
| 20260505053413 | 51 | 233 | 0.0 | 0.0 | 0.00 | 0.00 | 0.00 | 82 | 1011.2 |
| 20260505052909 | 51 | 250 | 0.0 | 0.0 | 0.00 | 0.00 | 0.00 | 82 | 1011.0 |
| 20260505052406 | 52 | 234 | 0.0 | 0.0 | 0.00 | 0.00 | 0.00 | 82 | 1011.1 |
| 20260505051903 | 52 | 259 | 0.0 | 0.0 | 0.00 | 0.00 | 0.00 | 81 | 1011.1 |
| 20260505051401 | 53 | 229 | 0.0 | 0.0 | 0.00 | 0.00 | 0.00 | 81 | 1010.9 |
| 20260505050859 | 53 | 228 | 0.0 | 0.0 | 0.00 | 0.00 | 0.00 | 80 | 1011.2 |
| 20260505050357 | 53 | 233 | 0.0 | 0.0 | 0.00 | 0.00 | 0.00 | 79 | 1011.1 |
| 20260505041324 | 59 | 225 | 0.0 | 0.0 | 0.00 | 0.00 | 0.00 | 67 | 1011.1 |
| 20260505040821 | 59 | 215 | 1.0 | 1.0 | 0.00 | 0.00 | 0.00 | 66 | 1011.3 |
| 20260505040319 | 59 | 203 | 0.0 | 0.0 | 0.00 | 0.00 | 0.00 | 66 | 1011.2 |
| 20260505035815 | 58 | 227 | 0.0 | 0.0 | 0.00 | 0.00 | 0.00 | 68 | 1011.2 |
| 20260505035311 | 58 | 209 | 0.0 | 1.0 | 0.00 | 0.00 | 0.00 | 67 | 1011.2 |
| 20260505034809 | 58 | 214 | 1.0 | 1.0 | 0.00 | 0.00 | 0.00 | 68 | 1011.1 |
| 20260505034305 | 57 | 211 | 0.0 | 0.0 | 0.00 | 0.00 | 0.00 | 67 | 1011.2 |
| 20260505033802 | 55 | 220 | 0.0 | 0.0 | 0.00 | 0.00 | 0.00 | 71 | 1011.3 |
| 20260505033259 | 55 | 225 | 0.0 | 0.0 | 0.00 | 0.00 | 0.00 | 73 | 1011.2 |
| 20260505032758 | 55 | 230 | 0.0 | 0.0 | 0.00 | 0.00 | 0.00 | 71 | 1011.4 |
| 20260505032253 | 56 | 227 | 0.0 | 0.0 | 0.00 | 0.00 | 0.00 | 71 | 1011.5 |
| 20260505031750 | 56 | 226 | 0.0 | 0.0 | 0.00 | 0.00 | 0.00 | 69 | 1011.2 |
| 20260505031246 | 56 | 236 | 0.0 | 0.0 | 0.00 | 0.00 | 0.00 | 69 | 1011.2 |
| 20260505030744 | 57 | 224 | 0.0 | 0.0 | 0.00 | 0.00 | 0.00 | 68 | 1011.3 |
| 20260505030240 | 58 | 224 | 0.0 | 0.0 | 0.00 | 0.00 | 0.00 | 65 | 1011.3 |
| 20260505025736 | 58 | 219 | 0.0 | 0.0 | 0.00 | 0.00 | 0.00 | 64 | 1011.3 |
| 20260505025234 | 57 | 211 | 0.0 | 0.0 | 0.00 | 0.00 | 0.00 | 65 | 1011.4 |
| 20260505024732 | 57 | 201 | 0.0 | 0.0 | 0.00 | 0.00 | 0.00 | 65 | 1011.2 |
| 20260505024229 | 57 | 211 | 0.0 | 0.0 | 0.00 | 0.00 | 0.00 | 65 | 1011.4 |
| 20260505023726 | 56 | 226 | 0.0 | 0.0 | 0.00 | 0.00 | 0.00 | 68 | 1011.4 |
| 20260505023223 | 56 | 228 | 0.0 | 0.0 | 0.00 | 0.00 | 0.00 | 68 | 1011.5 |
| 20260505022721 | 55 | 231 | 0.0 | 0.0 | 0.00 | 0.00 | 0.00 | 70 | 1011.3 |
| 20260505022217 | 54 | 233 | 0.0 | 0.0 | 0.00 | 0.00 | 0.00 | 76 | 1011.5 |
| 20260505021714 | 53 | 214 | 0.0 | 0.0 | 0.00 | 0.00 | 0.00 | 77 | 1011.5 |
| 20260505021211 | 53 | 229 | 0.0 | 0.0 | 0.00 | 0.00 | 0.00 | 77 | 1011.7 |
| 20260505020707 | 53 | 222 | 0.0 | 0.0 | 0.00 | 0.00 | 0.00 | 77 | 1011.5 |
| 20260505020203 | 54 | 230 | 0.0 | 0.0 | 0.00 | 0.00 | 0.00 | 76 | 1011.7 |
| 20260505015700 | 54 | 228 | 0.0 | 0.0 | 0.00 | 0.00 | 0.00 | 74 | 1011.5 |
| 20260505015157 | 54 | 228 | 0.0 | 0.0 | 0.00 | 0.00 | 0.00 | 73 | 1011.4 |
| 20260505014654 | 55 | 232 | 0.0 | 0.0 | 0.00 | 0.00 | 0.00 | 73 | 1011.5 |
| 20260505014151 | 55 | 228 | 0.0 | 0.0 | 0.00 | 0.00 | 0.00 | 73 | 1011.4 |
| 20260505013648 | 56 | 229 | 0.0 | 0.0 | 0.00 | 0.00 | 0.00 | 72 | 1011.2 |
| 20260505013145 | 56 | 226 | 0.0 | 0.0 | 0.00 | 0.00 | 0.00 | 70 | 1011.2 |
| 20260505012643 | 56 | 224 | 0.0 | 0.0 | 0.00 | 0.00 | 0.00 | 69 | 1011.4 |
| 20260505012140 | 57 | 233 | 0.0 | 0.0 | 0.00 | 0.00 | 0.00 | 67 | 1011.2 |
| 20260505011635 | 58 | 226 | 0.0 | 0.0 | 0.00 | 0.00 | 0.00 | 65 | 1011.2 |
| 20260505011128 | 59 | 228 | 0.0 | 0.0 | 0.00 | 0.00 | 0.00 | 64 | 1011.1 |
| 20260505010628 | 59 | 223 | 0.0 | 0.0 | 0.00 | 0.00 | 0.00 | 62 | 1010.9 |
| 20260505010125 | 59 | 222 | 0.0 | 0.0 | 0.00 | 0.00 | 0.00 | 61 | 1010.7 |
| 20260505005621 | 60 | 227 | 0.0 | 0.0 | 0.00 | 0.00 | 0.00 | 59 | 1010.7 |
| 20260505005118 | 60 | 227 | 0.0 | 0.0 | 0.00 | 0.00 | 0.00 | 57 | 1010.9 |
| 20260505004615 | 60 | 217 | 0.0 | 0.0 | 0.00 | 0.00 | 0.00 | 56 | 1010.6 |
| 20260505004112 | 61 | 227 | 0.0 | 0.0 | 0.00 | 0.00 | 0.00 | 57 | 1010.7 |
| 20260505003609 | 62 | 222 | 0.0 | 0.0 | 0.00 | 0.00 | 0.00 | 54 | 1010.7 |
| 20260505003106 | 62 | 228 | 0.0 | 0.0 | 0.00 | 0.00 | 0.00 | 53 | 1010.6 |
| 20260505002602 | 63 | 216 | 0.0 | 0.0 | 0.00 | 0.00 | 0.00 | 51 | 1010.6 |
| 20260505002101 | 64 | 229 | 0.0 | 0.0 | 0.00 | 0.00 | 0.00 | 49 | 1010.7 |
| 20260505001558 | 64 | 225 | 0.0 | 0.0 | 0.00 | 0.00 | 0.00 | 48 | 1010.6 |
| 20260505001055 | 65 | 227 | 0.0 | 0.0 | 0.00 | 0.00 | 0.00 | 46 | 1010.4 |
| 20260505000552 | 66 | 221 | 1.0 | 2.0 | 0.00 | 0.00 | 0.00 | 44 | 1010.5 |
| 20260505000050 | 67 | 218 | 0.0 | 0.0 | 0.00 | 0.00 | 0.00 | 44 | 1010.1 |
| 20260504235546 | 68 | 227 | 0.0 | 0.0 | 0.00 | 0.00 | 0.00 | 42 | 1010.2 |
| 20260504235043 | 68 | 251 | 2.0 | 3.0 | 0.00 | 0.00 | 0.00 | 41 | 1010.0 |
| 20260504234540 | 68 | 237 | 2.0 | 2.0 | 0.00 | 0.00 | 0.00 | 42 | 1010.2 |
| 20260504234037 | 69 | 217 | 1.0 | 2.0 | 0.00 | 0.00 | 0.00 | 41 | 1010.0 |
| 20260504233532 | 69 | 218 | 1.0 | 2.0 | 0.00 | 0.00 | 0.00 | 41 | 1010.0 |
| 20260504233029 | 69 | 251 | 2.0 | 2.0 | 0.00 | 0.00 | 0.00 | 40 | 1009.8 |
| 20260504232526 | 70 | 233 | 2.0 | 2.0 | 0.00 | 0.00 | 0.00 | 40 | 1009.9 |
| 20260504232024 | 70 | 239 | 9.0 | 10.0 | 0.00 | 0.00 | 0.00 | 38 | 1009.7 |
| 20260504231520 | 71 | 222 | 3.0 | 5.0 | 0.00 | 0.00 | 0.00 | 38 | 1009.8 |
| 20260504231016 | 71 | 233 | 4.0 | 7.0 | 0.00 | 0.00 | 0.00 | 38 | 1009.8 |
| 20260504230513 | 71 | 228 | 0.0 | 0.0 | 0.00 | 0.00 | 0.00 | 38 | 1009.9 |
| 20260504230012 | 71 | 231 | 3.0 | 3.0 | 0.00 | 0.00 | 0.00 | 38 | 1009.6 |
| 20260504225508 | 72 | 228 | 3.0 | 3.0 | 0.00 | 0.00 | 0.00 | 37 | 1009.4 |
| 20260504225006 | 72 | 244 | 7.0 | 8.0 | 0.00 | 0.00 | 0.00 | 37 | 1009.5 |
| 20260504224502 | 72 | 189 | 3.0 | 6.0 | 0.00 | 0.00 | 0.00 | 38 | 1009.5 |
| 20260504223959 | 72 | 224 | 4.0 | 5.0 | 0.00 | 0.00 | 0.00 | 37 | 1009.6 |
| 20260504223455 | 73 | 217 | 3.0 | 5.0 | 0.00 | 0.00 | 0.00 | 37 | 1009.5 |
| 20260504222951 | 72 | 213 | 5.0 | 6.0 | 0.00 | 0.00 | 0.00 | 37 | 1009.5 |
| 20260504222449 | 72 | 259 | 3.0 | 6.0 | 0.00 | 0.00 | 0.00 | 37 | 1009.6 |
| 20260504221946 | 72 | 248 | 5.0 | 6.0 | 0.00 | 0.00 | 0.00 | 37 | 1009.6 |
| 20260504221443 | 73 | 238 | 2.0 | 2.0 | 0.00 | 0.00 | 0.00 | 37 | 1009.7 |
| 20260504220940 | 73 | 260 | 6.0 | 8.0 | 0.00 | 0.00 | 0.00 | 36 | 1009.6 |
| 20260504220436 | 73 | 232 | 3.0 | 5.0 | 0.00 | 0.00 | 0.00 | 36 | 1009.7 |
| 20260504215934 | 73 | 234 | 1.0 | 2.0 | 0.00 | 0.00 | 0.00 | 36 | 1009.9 |
| 20260504215431 | 74 | 252 | 3.0 | 5.0 | 0.00 | 0.00 | 0.00 | 37 | 1009.9 |
| 20260504214927 | 74 | 242 | 3.0 | 8.0 | 0.00 | 0.00 | 0.00 | 36 | 1009.8 |
| 20260504214423 | 73 | 243 | 0.0 | 0.0 | 0.00 | 0.00 | 0.00 | 37 | 1009.7 |
| 20260504213920 | 73 | 221 | 6.0 | 8.0 | 0.00 | 0.00 | 0.00 | 35 | 1010.2 |
| 20260504213416 | 73 | 253 | 2.0 | 6.0 | 0.00 | 0.00 | 0.00 | 37 | 1009.9 |
| 20260504212914 | 73 | 229 | 1.0 | 2.0 | 0.00 | 0.00 | 0.00 | 37 | 1009.7 |
| 20260504212409 | 73 | 197 | 4.0 | 6.0 | 0.00 | 0.00 | 0.00 | 37 | 1009.8 |
| 20260504211908 | 73 | 228 | 4.0 | 5.0 | 0.00 | 0.00 | 0.00 | 37 | 1009.9 |
| 20260504211403 | 73 | 249 | 4.0 | 6.0 | 0.00 | 0.00 | 0.00 | 36 | 1010.1 |
| 20260504210901 | 73 | 262 | 2.0 | 3.0 | 0.00 | 0.00 | 0.00 | 36 | 1010.2 |
| 20260504210358 | 73 | 340 | 7.0 | 8.0 | 0.00 | 0.00 | 0.00 | 35 | 1010.2 |
| 20260504205855 | 74 | 175 | 5.0 | 7.0 | 0.00 | 0.00 | 0.00 | 35 | 1010.1 |
| 20260504205353 | 73 | 248 | 3.0 | 3.0 | 0.00 | 0.00 | 0.00 | 38 | 1010.1 |
| 20260504204850 | 73 | 232 | 2.0 | 3.0 | 0.00 | 0.00 | 0.00 | 37 | 1010.1 |
| 20260504204349 | 73 | 205 | 7.0 | 9.0 | 0.00 | 0.00 | 0.00 | 35 | 1010.0 |
| 20260504203848 | 73 | 241 | 3.0 | 3.0 | 0.00 | 0.00 | 0.00 | 34 | 1010.1 |
| 20260504203344 | 74 | 193 | 3.0 | 3.0 | 0.00 | 0.00 | 0.00 | 36 | 1010.1 |
| 20260504202840 | 73 | 164 | 1.0 | 2.0 | 0.00 | 0.00 | 0.00 | 35 | 1010.1 |
| 20260504202337 | 73 | 249 | 1.0 | 1.0 | 0.00 | 0.00 | 0.00 | 36 | 1009.9 |
| 20260504201834 | 73 | 246 | 1.0 | 2.0 | 0.00 | 0.00 | 0.00 | 36 | 1010.1 |
| 20260504201331 | 73 | 282 | 2.0 | 3.0 | 0.00 | 0.00 | 0.00 | 36 | 1010.1 |
| 20260504200829 | 73 | 269 | 8.0 | 10.0 | 0.00 | 0.00 | 0.00 | 35 | 1010.2 |
| 20260504200325 | 73 | 172 | 5.0 | 7.0 | 0.00 | 0.00 | 0.00 | 35 | 1010.3 |
| 20260504195821 | 73 | 272 | 6.0 | 8.0 | 0.00 | 0.00 | 0.00 | 34 | 1010.5 |
| 20260504195317 | 73 | 191 | 3.0 | 5.0 | 0.00 | 0.00 | 0.00 | 36 | 1010.3 |
| 20260504194814 | 73 | 261 | 4.0 | 7.0 | 0.00 | 0.00 | 0.00 | 34 | 1010.3 |
| 20260504194310 | 72 | 229 | 3.0 | 3.0 | 0.00 | 0.00 | 0.00 | 35 | 1010.4 |
| 20260504193806 | 72 | 189 | 7.0 | 9.0 | 0.00 | 0.00 | 0.00 | 35 | 1010.5 |
| 20260504193304 | 72 | 264 | 4.0 | 6.0 | 0.00 | 0.00 | 0.00 | 36 | 1010.4 |
| 20260504192803 | 72 | 247 | 12.0 | 17.0 | 0.00 | 0.00 | 0.00 | 34 | 1010.3 |
| 20260504192300 | 73 | 239 | 7.0 | 9.0 | 0.00 | 0.00 | 0.00 | 34 | 1010.4 |
| 20260504191759 | 73 | 268 | 3.0 | 6.0 | 0.00 | 0.00 | 0.00 | 37 | 1010.3 |
| 20260504191255 | 72 | 123 | 4.0 | 6.0 | 0.00 | 0.00 | 0.00 | 35 | 1010.5 |
| 20260504190751 | 73 | 240 | 7.0 | 8.0 | 0.00 | 0.00 | 0.00 | 35 | 1010.6 |
| 20260504190247 | 73 | 196 | 6.0 | 7.0 | 0.00 | 0.00 | 0.00 | 34 | 1010.7 |
| 20260504185744 | 72 | 283 | 3.0 | 6.0 | 0.00 | 0.00 | 0.00 | 35 | 1010.6 |
| 20260504185241 | 72 | 244 | 3.0 | 5.0 | 0.00 | 0.00 | 0.00 | 36 | 1011.0 |
| 20260504184737 | 71 | 251 | 10.0 | 10.0 | 0.00 | 0.00 | 0.00 | 35 | 1010.9 |
| 20260504184233 | 71 | 269 | 6.0 | 8.0 | 0.00 | 0.00 | 0.00 | 35 | 1011.2 |